Flag Weather past 2 weeks in Bologna, Italy

Now
50 °F

Fog.


Feels Like: 49 °F
Forecast: 45 / 60 °F
Wind: 3 mph from Northwest

Location: Bologna / Borgo Panigale

Current Time: Nov 23, 2014 at 3:23:38 AM

Latest Report: Nov 23, 2014 at 2:50 AM


Visibility: 2 mi

Pressure: 30.30 "Hg

Humidity: 100%

Dew point: 50 °F

Location of BolognaLocation

Historic Weather in Bologna — Graph

°F

Bologna temperature yesterday

Maximum temperature yesterday: 54 °F (at 11:50 AM)
Minimum temperature yesterday: 46 °F (at 5:50 AM)
Average temperature yesterday: 50 °F

Past Weeks' High & Low Weather Summary

 TemperatureHumidityPressure
High64 °F (Nov 16, 9:50 AM)100% (Nov 9, 12:50 AM)30.30 "Hg (Nov 9, 12:50 AM)
Low39 °F (Nov 21, 5:50 AM)52% (Nov 16, 3:50 AM)29.56 "Hg (Nov 15, 6:20 PM)
Average54 °F90%29.91 "Hg
* Reported Nov 8 1:20 AM — Nov 23 1:50 AM, Bologna, Weather by CustomWeather, © 2014

Note: Actual official high and low records may vary slightly from our data, if they occured in-between our weather recording intervals... More about our weather records

Advertising

Bologna weather history for previous 24 hours

 ConditionsComfort  
Time TempWeatherWind HumidityBarometerVisibility
1:50 AM
Nov 23
50 °FFog.No wind100%30.30 "Hg2 mi
1:20 AM50 °FFog.No wind100%30.30 "Hg2 mi
12:50 AM50 °FFog.2 mph100%30.30 "Hg2 mi
12:20 AM50 °FFog.2 mph100%30.30 "Hg2 mi
11:50 PM
Nov 22
50 °FFog.1 mph100%30.30 "Hg2 mi
11:20 PM50 °FFog.1 mph100%30.30 "Hg2 mi
10:50 PM52 °FFog.3 mph88%30.30 "Hg2 mi
10:20 PM52 °FFog.1 mph88%30.30 "Hg2 mi
9:50 PM52 °FFog.2 mph88%30.30 "Hg2 mi
9:20 PM52 °FFog.1 mph88%30.30 "Hg2 mi
8:50 PM52 °FFog.1 mph88%30.30 "Hg2 mi
8:20 PM52 °FFog.3 mph88%30.30 "Hg2 mi
7:50 PM52 °FFog.2 mph88%30.27 "Hg2 mi
7:20 PM52 °FFog.2 mph88%30.27 "Hg2 mi
6:50 PM52 °FFog.2 mph88%30.27 "Hg2 mi
6:20 PM52 °FFog.2 mph88%30.27 "Hg2 mi
5:50 PM52 °FFog.3 mph88%30.27 "Hg2 mi
5:20 PM52 °FFog.2 mph88%30.27 "Hg2 mi
4:50 PM54 °FFog.2 mph82%30.27 "Hg2 mi
4:20 PM54 °FFog.3 mph82%30.27 "Hg2 mi
3:50 PM54 °FFog.3 mph82%30.27 "Hg2 mi
3:20 PM54 °FFog.3 mph82%30.24 "Hg3 mi
2:50 PM54 °FFog.3 mph82%30.24 "Hg3 mi
2:20 PM54 °FFog.5 mph88%30.24 "Hg3 mi
1:50 PM54 °FFog.3 mph82%30.27 "Hg3 mi
1:20 PM54 °FFog.5 mph88%30.24 "Hg3 mi
12:50 PM54 °FFog.3 mph88%30.27 "Hg2 mi
12:20 PM54 °FFog.2 mph82%30.27 "Hg2 mi
11:50 AM54 °FFog.2 mph82%30.27 "Hg2 mi
11:20 AM52 °FFog.1 mph88%30.27 "Hg2 mi
10:50 AM52 °FFog.3 mph88%30.30 "Hg2 mi
10:20 AM50 °FFog.2 mph94%30.30 "Hg2 mi
9:50 AM48 °FFog.2 mph94%30.27 "Hg2 mi
9:20 AM46 °FFog.1 mph100%30.27 "Hg2 mi
8:50 AM46 °FFog.No wind93%30.27 "Hg2 mi
8:20 AM46 °FFog.1 mph100%30.24 "Hg1 mi
7:50 AM46 °FFog.3 mph93%30.24 "Hg1 mi
7:20 AM46 °FFog.6 mph100%30.24 "Hg1 mi
6:50 AM46 °FFog.6 mph100%30.21 "Hg1 mi
6:20 AM46 °FFog.3 mph93%30.24 "Hg1 mi
5:50 AM46 °FFog.3 mph100%30.21 "Hg1 mi
5:20 AM48 °FFog.3 mph94%30.24 "Hg1 mi
4:50 AM48 °FFog.3 mph100%30.24 "Hg1 mi
4:20 AM48 °FFog.3 mph100%30.24 "Hg1 mi
3:50 AM48 °FFog.2 mph94%30.21 "Hg1 mi
3:20 AM48 °FFog.2 mph100%30.21 "Hg1 mi
Weather by CustomWeather, © 2014

See weather overviewHow to use our weather pages